Fitchburg, MA

2:21 PM EDT on June 26, 2017 (GMT -0400)
Fitchburg Municipal

Weather History for KFIT - February, 2014

Change the Weather History Date:

Saturday, February 1, 2014

  Actual Average (KORH) Record (KORH)
Temperature  
Mean Temperature 36 °F -  
Max Temperature 45 °F 31 °F 61 °F (1989)
Min Temperature 26 °F 17 °F -11 °F (1935)
Degree Days  
Heating Degree Days 30    
Moisture  
Dew Point 22 °F    
Average Humidity 60    
Maximum Humidity 79    
Minimum Humidity 37    
Precipitation  
Precipitation 0.00 in - - ()
Sea Level Pressure  
Sea Level Pressure 30.23 in    
Wind  
Wind Speed 3 mph (SSE)    
Max Wind Speed 14 mph    
Max Gust Speed 21 mph    
Visibility 10 miles    
Events Rain    
Averages and records for this station are not official NWS values.
T = Trace of Precipitation, MM = Missing Value Source: NWS Daily Summary

Daily Weather History Graph

Daily Weather History Graph

Search for Another Location

Airport or City:

Trip Planner

Search our weather history database for the weather conditions in past years. The results will help you decide how hot, cold, wet, or windy it might be!

Date:

Astronomy

Feb. 01, 2014 Rise Set
Actual Time 7:01 AM EST 5:00 PM EST
Civil Twilight 6:31 AM EST 5:30 PM EST
Nautical Twilight 5:57 AM EST 6:04 PM EST
Astronomical Twilight 5:24 AM EST 6:37 PM EST
Moon 7:45 AM EST (2/1) 7:36 PM EST (2/1)
Length of Visible Light 10h 59m
Length of Day
9h 59m
Waxing Crescent, 5% of the Moon is Illuminated
Feb 1
Waxing Crescent
Feb 6
First Quarter
Feb 14
Full
Feb 22
Last Quarter
Mar 1
New

Hourly Weather History & Observations

Time (EST) Temp. Windchill Dew Point Humidity Pressure Visibility Wind Dir Wind Speed Gust Speed Precip Events Conditions
12:52 AM 28.0 °F - 21.0 °F 75% 30.22 in 10.0 mi Calm Calm - N/A   Clear
1:52 AM 27.0 °F - 19.9 °F 75% 30.23 in 10.0 mi Calm Calm - N/A   Clear
2:52 AM 28.9 °F 25.2 °F 19.9 °F 69% 30.25 in 10.0 mi North 3.5 mph - N/A   Clear
3:52 AM 28.9 °F - 19.9 °F 69% 30.26 in 10.0 mi Calm Calm - N/A   Clear
4:52 AM 30.0 °F - 19.9 °F 66% 30.27 in 10.0 mi Calm Calm - N/A   Clear
5:52 AM 27.0 °F - 19.9 °F 75% 30.29 in 10.0 mi Calm Calm - N/A   Partly Cloudy
6:52 AM 26.1 °F - 19.0 °F 75% 30.31 in 10.0 mi Calm Calm - N/A   Partly Cloudy
7:52 AM 26.1 °F - 19.9 °F 78% 30.33 in 10.0 mi Calm Calm - N/A   Clear
8:52 AM 30.9 °F - 21.0 °F 67% 30.35 in 10.0 mi Calm Calm - N/A   Clear
9:52 AM 37.0 °F - 21.0 °F 52% 30.33 in 10.0 mi Calm Calm - N/A   Clear
10:52 AM 41.0 °F - 21.0 °F 45% 30.31 in 10.0 mi Calm Calm - N/A   Clear
11:52 AM 43.0 °F 39.5 °F 19.9 °F 40% 30.29 in 10.0 mi SE 5.8 mph - N/A   Clear
12:52 PM 45.0 °F 42.6 °F 19.9 °F 37% 30.25 in 10.0 mi SE 4.6 mph - N/A   Clear
1:52 PM 45.0 °F 39.3 °F 21.9 °F 40% 30.25 in 10.0 mi South 11.5 mph - N/A   Clear
2:52 PM 45.0 °F 40.1 °F 21.0 °F 39% 30.21 in 10.0 mi South 9.2 mph - N/A   Clear
3:52 PM 44.1 °F 38.1 °F 21.9 °F 42% 30.21 in 10.0 mi SSE 11.5 mph - N/A   Mostly Cloudy
4:52 PM 42.1 °F 34.9 °F 26.1 °F 53% 30.19 in 10.0 mi South 13.8 mph - 0.00 in Rain Light Rain
5:52 PM 41.0 °F 35.8 °F 25.0 °F 53% 30.20 in 10.0 mi SSE 8.1 mph - 0.00 in   Overcast
6:52 PM 39.9 °F 33.4 °F 21.9 °F 49% 30.20 in 10.0 mi South 10.4 mph 20.7 mph N/A   Overcast
7:52 PM 39.0 °F 33.4 °F 24.1 °F 55% 30.17 in 10.0 mi SSE 8.1 mph - N/A   Partly Cloudy
8:52 PM 37.0 °F 33.3 °F 27.0 °F 67% 30.13 in 10.0 mi SSE 4.6 mph - N/A   Clear
9:52 PM 36.0 °F 32.1 °F 27.0 °F 70% 30.10 in 10.0 mi SE 4.6 mph - N/A   Clear
10:52 PM 34.0 °F 31.0 °F 27.0 °F 75% 30.06 in 10.0 mi South 3.5 mph - N/A   Clear
11:52 PM 34.0 °F 31.0 °F 28.0 °F 79% 30.04 in 10.0 mi SE 3.5 mph - N/A   Mostly Cloudy